Theta_e
334 337 341 341 341 346 344 344 343 343 343 343 343 341 340 341 342 341 341 340 338 339 341 341 341 340 339 340 339 338 337 338 339 339 339 339 339 340 340 337 335 336 335 335 334 333 333 331 327 326 328 331 333 335 337 338 337 337 335 334 333 333 335 336 336 337 336 332 329 332 336 337 337 338 339 338 339 339 339 340 342 342 341 341 342
334 336 340 340 341 345 344 345 343 343 342 342 343 341 340 341 342 341 341 340 339 339 340 341 340 340 340 340 339 337 336 337 338 338 338 339 340 339 339 338 338 337 335 334 332 329 328 326 324 324 325 325 327 329 332 334 335 335 334 333 332 332 332 333 333 333 332 329 328 330 333 335 336 338 338 338 338 338 339 340 341 342 341 340 340
333 336 340 340 340 344 344 345 344 343 342 343 342 342 341 341 342 341 341 340 339 338 339 341 340 340 340 340 339 338 337 337 337 338 338 338 339 339 339 339 339 338 337 335 328 324 323 323 324 325 324 324 324 324 325 326 328 328 329 330 331 331 331 332 331 331 331 331 331 334 334 334 334 334 335 337 339 339 339 340 340 341 341 340 340
332 336 340 340 340 344 344 345 344 343 343 343 342 342 341 340 341 340 340 340 340 338 338 340 340 340 340 339 339 338 338 337 337 337 337 337 338 338 338 339 339 338 337 336 332 330 328 326 326 327 326 326 325 323 323 323 324 325 325 325 327 329 331 332 332 332 333 334 334 336 338 337 336 334 333 333 335 337 336 337 337 339 340 340 340
332 336 339 341 341 345 344 344 345 344 343 343 342 343 341 340 341 340 341 340 340 339 338 339 339 340 340 339 338 338 338 337 337 336 337 337 337 338 338 338 338 338 337 337 337 336 335 333 331 330 329 328 327 326 325 324 325 326 326 325 325 325 327 331 332 333 333 334 336 337 339 339 338 337 336 333 331 331 330 331 330 332 336 338 339
332 336 339 341 343 345 344 344 345 344 344 343 343 342 341 341 340 340 340 340 340 340 339 338 338 339 339 338 338 337 337 337 336 335 335 336 336 336 337 337 338 337 337 338 338 337 336 334 331 330 328 325 323 322 324 326 327 326 327 328 327 324 323 327 331 333 333 333 336 338 338 339 339 338 338 337 334 331 330 329 328 328 329 333 336
330 335 340 342 343 344 344 344 344 344 344 343 343 342 342 341 341 341 340 340 340 340 339 337 337 339 339 338 338 337 335 336 334 333 332 332 333 334 336 337 337 337 337 337 337 336 335 333 330 328 325 323 321 319 318 321 327 329 328 329 327 323 318 321 330 332 332 335 336 337 337 338 339 338 337 337 337 334 333 331 330 328 326 327 329
328 334 340 342 343 344 343 344 343 344 343 343 342 342 342 341 341 341 340 340 340 341 340 339 337 337 338 338 337 336 335 334 332 330 329 330 331 332 335 336 336 336 336 336 336 335 333 332 330 329 327 326 326 325 322 317 322 330 328 327 324 320 314 314 327 331 332 335 336 336 336 337 338 338 337 336 335 333 333 333 332 330 327 326 326
326 333 339 342 343 343 343 343 343 343 343 342 342 342 341 341 341 341 341 339 340 340 339 339 339 337 337 338 337 336 334 333 333 331 329 329 329 331 333 334 335 336 336 336 336 335 332 331 329 329 328 328 328 326 326 317 315 325 325 322 319 314 309 310 322 329 332 335 335 336 335 335 337 337 336 337 335 332 332 334 334 332 329 327 326
325 333 339 342 342 341 342 342 342 342 342 342 342 342 341 342 341 341 341 339 339 339 339 339 339 337 337 337 337 335 334 334 334 333 331 329 328 329 331 333 335 335 336 336 335 335 333 331 330 330 329 329 328 326 326 316 307 314 316 313 310 306 304 310 323 329 332 335 334 335 332 331 335 336 336 336 335 332 332 333 333 332 331 329 328
325 331 337 341 342 341 341 342 341 341 341 342 341 342 342 342 341 341 341 340 339 339 339 339 338 337 335 334 335 333 333 336 336 334 332 330 328 329 330 332 334 335 336 335 334 334 333 332 331 330 329 328 327 326 321 310 301 304 306 304 303 303 305 313 326 330 332 333 332 334 331 330 334 334 335 335 334 333 332 333 333 332 331 330 330
326 329 335 340 341 341 340 342 341 340 341 342 342 341 342 342 341 341 341 340 339 339 339 339 338 337 335 333 333 331 332 336 337 336 334 331 329 330 331 332 333 334 335 334 333 332 332 331 330 328 327 326 324 324 314 301 300 300 301 301 303 306 309 317 327 331 332 331 331 333 332 333 334 333 333 334 334 333 333 333 333 332 331 330 330
327 327 332 338 340 340 340 341 341 341 341 341 342 341 342 342 341 341 340 340 338 338 339 338 337 337 337 335 335 333 332 336 337 337 336 333 330 330 331 331 331 333 332 330 329 328 328 326 326 326 325 325 323 322 309 298 300 299 300 302 305 308 312 319 327 331 330 330 331 332 333 333 333 332 332 333 333 333 332 330 329 329 329 329 329
328 328 332 337 339 338 338 340 340 340 341 341 341 341 341 341 341 340 340 339 338 338 338 337 336 337 337 337 337 334 332 334 337 337 336 335 332 331 331 331 330 330 328 328 328 327 327 326 326 326 326 325 324 322 308 298 299 299 301 303 306 310 314 321 325 329 329 329 330 331 332 332 331 330 330 331 330 328 327 327 325 325 327 326 326
331 330 332 336 337 338 337 339 339 339 340 340 341 340 341 341 340 340 340 339 338 337 337 336 335 336 336 336 336 335 333 333 336 337 336 336 334 332 332 332 330 329 329 329 329 329 329 328 328 327 326 326 323 322 309 298 299 300 302 304 309 313 317 323 325 328 328 328 330 330 331 331 330 329 329 330 328 327 326 325 324 325 324 322 323
332 331 331 333 335 338 338 338 339 339 339 339 339 339 340 340 340 340 340 339 339 338 337 336 334 335 335 335 335 334 333 333 335 336 336 336 335 334 333 332 330 329 330 329 330 329 329 328 327 326 325 324 321 320 310 298 299 299 301 304 308 313 318 325 327 328 328 328 329 329 330 330 330 329 328 328 328 327 326 324 322 325 323 321 322
333 333 333 333 334 336 338 339 338 339 339 338 339 338 339 339 339 339 339 339 339 339 337 337 335 334 335 334 334 334 333 333 335 336 336 336 335 335 334 333 331 331 331 330 329 328 327 326 325 324 323 322 320 320 310 298 299 299 300 303 305 310 316 323 327 327 327 327 328 329 329 329 329 328 328 327 327 326 326 324 321 321 320 320 318
331 333 334 335 335 336 337 338 338 338 338 338 338 338 338 338 338 338 338 339 338 339 337 337 336 334 334 334 334 333 333 333 335 336 336 336 335 335 335 334 332 331 331 330 329 328 326 325 324 323 322 322 319 319 313 301 298 299 299 301 303 306 309 318 326 326 326 327 328 328 328 329 329 328 327 327 326 326 325 323 317 313 314 315 316
329 331 332 334 335 336 336 336 337 338 338 338 339 337 337 338 337 338 338 339 338 338 337 336 335 334 333 334 335 333 332 332 333 335 335 336 335 334 334 334 333 331 331 330 329 328 327 325 325 324 323 322 320 318 315 306 298 298 299 299 301 302 306 316 322 323 325 326 326 327 327 328 328 327 327 326 325 325 324 322 316 309 310 314 318
326 327 330 331 333 336 336 336 336 337 337 338 339 338 337 337 336 337 338 339 339 337 336 336 334 333 333 332 333 332 331 331 332 333 334 334 334 333 333 334 333 331 331 331 329 328 327 325 325 325 324 323 321 318 316 311 301 297 298 299 299 301 308 313 316 320 323 323 323 325 325 326 326 326 326 325 325 324 323 321 318 313 314 319 322
319 321 324 327 330 333 334 336 336 337 337 337 338 338 337 337 336 337 337 338 339 337 335 335 333 332 332 331 332 332 331 332 332 333 333 333 333 333 332 333 333 332 331 330 329 329 327 324 324 324 324 323 323 320 316 312 305 298 297 298 298 302 304 304 310 317 317 316 319 320 319 320 321 324 325 325 324 323 321 319 319 320 320 321 323
313 314 316 319 324 329 332 334 335 336 336 336 337 337 337 336 336 337 336 337 337 336 336 335 335 334 333 332 332 332 332 332 332 332 333 333 333 333 331 331 333 332 331 330 329 329 327 324 323 323 323 323 323 322 319 313 306 299 297 297 297 301 300 297 304 308 307 308 312 312 312 316 319 322 324 324 323 321 320 320 319 321 321 320 322
313 314 314 314 316 320 326 331 333 334 335 336 335 336 337 336 336 337 336 336 336 335 336 337 337 336 335 334 333 333 332 332 332 331 332 332 332 332 331 330 331 332 331 331 329 328 327 325 323 322 322 323 323 322 322 318 309 300 296 298 297 298 298 298 300 302 302 302 304 305 306 311 317 321 323 323 323 321 320 321 320 320 321 320 321
313 314 314 314 314 314 318 324 329 332 334 335 335 335 337 336 336 337 335 335 337 335 334 335 336 335 334 335 335 334 333 332 332 331 330 332 332 331 331 331 330 330 330 330 329 328 327 326 324 323 322 323 324 323 322 322 317 307 298 296 297 297 297 297 299 300 300 300 299 301 301 306 313 318 321 323 323 322 321 322 322 321 321 320 320
312 313 314 315 315 314 313 316 323 329 333 334 335 335 335 336 336 337 335 335 337 336 335 334 333 333 333 335 336 334 333 333 333 332 331 332 331 330 331 332 331 331 330 330 330 328 328 326 324 324 324 323 325 324 323 322 321 316 307 299 296 297 297 297 298 298 298 298 298 298 298 301 308 313 318 322 323 322 321 321 322 321 321 320 320
311 312 313 314 315 315 314 313 316 324 330 332 334 335 335 336 336 335 335 334 335 335 335 336 334 333 333 334 334 333 333 333 334 333 333 333 332 330 331 331 331 331 331 331 330 329 328 326 324 325 325 324 324 324 323 322 321 320 316 309 301 296 297 297 297 297 297 297 297 297 297 298 303 309 313 318 322 323 321 321 322 321 321 321 320
310 311 312 314 316 316 315 314 313 320 328 331 332 334 334 335 334 333 334 333 333 335 335 334 334 333 333 334 333 334 334 333 333 334 334 333 332 331 330 330 331 332 331 330 330 329 328 326 326 326 325 324 324 324 324 323 321 320 319 317 310 301 296 297 297 297 297 297 297 297 297 296 297 302 307 312 319 323 322 322 321 321 321 321 320
309 311 314 316 318 317 316 314 312 319 327 330 331 333 333 333 333 331 332 332 331 333 334 334 333 332 333 334 335 335 334 333 333 334 334 332 331 331 330 330 331 331 330 330 329 329 328 328 327 327 326 325 324 325 324 323 322 321 320 319 316 308 299 296 296 296 297 297 297 297 297 298 296 297 300 305 313 321 323 323 322 321 321 321 320
309 312 316 318 319 319 318 316 316 322 328 329 330 331 331 332 332 331 331 331 331 332 332 332 331 331 331 332 333 333 332 333 333 334 335 332 330 330 330 329 330 329 329 329 329 329 329 328 328 327 326 325 324 325 324 323 322 321 320 319 318 315 308 301 297 296 297 297 297 298 297 297 297 297 296 298 305 315 320 322 323 322 321 321 320
309 314 317 319 320 320 320 319 321 325 327 329 332 332 331 332 331 331 332 330 330 331 330 330 330 330 330 330 331 332 332 333 332 333 334 331 329 328 329 329 329 329 328 329 329 329 329 328 327 327 326 325 324 325 324 323 323 321 320 319 318 317 315 311 307 302 299 298 297 297 298 297 297 297 297 296 298 305 313 318 321 322 322 322 320
310 315 317 319 321 322 322 322 323 326 327 329 331 331 332 332 330 329 330 329 329 329 329 329 329 329 329 329 330 331 332 332 331 331 332 331 329 328 329 329 329 328 328 328 328 328 328 327 326 326 326 325 324 325 323 322 322 321 319 318 318 317 316 315 313 310 306 303 301 298 297 297 297 297 297 297 296 297 302 309 316 320 321 322 321
309 313 316 319 322 323 325 325 325 328 329 330 329 329 330 330 330 329 328 328 328 327 327 327 327 328 328 329 329 329 330 330 330 329 329 329 329 328 328 328 327 327 328 328 327 328 326 325 324 324 324 324 324 323 323 321 320 320 319 317 317 316 315 314 313 312 310 309 306 302 299 298 298 298 297 297 297 297 296 300 307 312 316 319 321
308 312 315 318 321 321 324 326 327 329 329 328 328 327 327 327 328 327 327 327 326 326 325 325 325 326 326 327 328 328 329 329 328 328 328 327 327 327 326 325 325 325 325 326 326 326 324 323 323 322 322 322 321 321 321 320 319 319 318 317 316 315 315 315 314 312 311 310 309 306 303 300 298 297 297 297 297 297 297 297 299 303 307 312 316
308 312 314 316 318 319 322 324 325 326 326 325 325 325 324 325 325 325 325 325 324 324 323 323 323 323 324 324 325 326 326 327 327 326 326 325 325 325 324 324 324 324 324 323 324 323 323 322 322 322 321 320 319 320 319 318 318 318 317 317 316 316 316 315 315 314 313 312 311 309 307 305 302 299 297 297 297 297 297 297 296 297 299 302 306
308 311 313 314 316 317 320 322 322 323 323 323 323 323 323 323 323 323 322 322 322 322 321 321 322 322 322 323 323 323 324 325 325 324 324 324 324 323 323 323 322 323 323 321 322 322 321 321 321 321 320 319 318 318 318 317 318 318 317 317 316 316 316 316 316 315 315 314 313 312 310 308 306 304 300 297 297 296 296 297 297 296 296 297 298
308 310 311 313 315 316 318 320 321 321 321 321 321 321 321 321 321 320 320 320 319 319 319 319 320 320 320 321 321 321 321 321 321 322 322 321 321 321 320 320 320 321 321 321 321 321 320 320 320 320 319 318 317 316 316 316 317 317 317 316 316 316 315 315 315 315 314 314 313 312 311 310 307 305 303 300 297 297 296 296 296 296 296 296 296
308 309 311 313 313 314 317 318 319 319 319 319 320 319 319 319 318 317 317 317 317 316 316 316 316 316 317 317 317 317 317 317 318 318 318 318 318 317 317 317 317 317 318 319 319 319 318 318 318 318 318 317 316 316 317 316 316 317 316 316 316 316 315 314 314 314 313 312 310 310 309 308 306 304 302 300 299 298 297 297 296 296 296 296 296
307 309 312 313 312 313 315 314 313 315 316 316 316 315 315 315 315 313 313 314 313 312 311 312 312 312 312 312 312 313 313 314 314 314 314 314 314 314 314 314 314 314 315 315 315 315 315 315 314 314 314 314 314 314 314 315 315 315 315 314 314 314 314 314 313 312 310 308 306 304 304 304 302 300 299 299 299 299 298 297 297 297 296 296 296
306 308 311 312 312 312 312 313 312 311 312 313 313 312 311 311 310 309 309 309 308 307 307 307 307 307 307 308 308 309 310 310 310 311 310 310 310 310 310 310 311 312 313 313 312 311 312 311 310 310 310 310 310 310 310 311 312 312 311 311 311 312 312 312 310 309 306 304 303 303 305 305 301 299 300 300 300 299 298 298 297 297 297 296 296
305 306 308 310 310 310 311 313 312 309 309 310 309 308 308 307 306 305 304 303 303 303 303 303 303 303 304 304 305 305 306 307 307 307 307 307 307 306 306 306 307 308 309 308 307 307 307 308 308 308 307 307 307 306 307 308 308 308 309 309 310 310 310 309 308 306 304 303 304 306 307 303 300 301 302 301 300 299 299 300 300 300 299 299 298
303 305 307 308 309 309 311 311 309 309 308 307 305 305 304 302 301 300 298 298 298 299 299 300 300 300 301 301 301 302 302 303 303 303 303 303 303 303 303 303 303 303 303 303 302 303 304 304 305 305 305 305 304 303 304 306 306 306 308 308 308 308 308 307 305 304 303 304 305 305 304 302 302 302 300 300 300 301 302 302 302 301 301 301 300
301 303 305 307 307 308 310 308 307 308 308 306 306 305 303 300 299 297 295 295 295 295 296 297 297 298 299 299 299 299 300 300 300 300 300 300 300 300 300 300 300 299 299 299 299 300 300 301 302 303 304 303 302 301 301 304 304 304 306 308 308 308 307 305 303 303 304 304 303 302 302 303 302 301 301 302 302 302 302 302 301 301 300 300 300
298 300 302 304 305 307 308 306 306 308 307 307 306 305 303 301 299 296 295 294 293 293 293 293 295 296 296 297 297 297 298 298 298 298 298 298 297 297 297 297 296 296 295 295 296 296 297 298 299 301 302 301 301 300 299 301 301 302 305 306 306 306 307 305 303 302 303 302 302 302 302 302 301 301 302 302 301 300 301 301 301 301 301 300 300
297 298 300 302 303 305 305 305 306 306 305 305 304 302 300 299 298 296 294 293 291 290 290 290 291 291 292 292 292 293 293 293 293 293 293 293 293 292 291 291 291 291 290 290 291 291 292 293 294 297 299 300 300 299 298 298 299 301 303 304 305 305 306 305 302 302 302 301 302 302 301 300 300 301 300 300 299 299 300 300 300 300 300 300 301
296 297 298 300 301 302 302 303 303 302 301 301 300 299 298 296 295 293 292 291 289 289 288 288 287 287 287 288 288 288 288 288 288 288 288 288 288 288 288 288 288 287 287 287 287 287 288 289 289 291 294 297 297 296 297 297 297 298 300 301 303 303 302 301 301 302 302 301 302 301 300 300 300 299 298 298 298 298 299 299 298 298 298 299 299
294 295 296 297 298 299 300 301 300 300 299 299 298 297 296 294 293 292 291 290 289 288 288 287 287 286 287 287 287 287 287 287 287 287 287 287 287 287 287 287 287 287 287 287 287 287 287 287 287 287 289 292 293 293 294 295 294 295 297 298 299 299 299 298 299 300 300 300 301 300 300 300 299 297 297 297 297 297 298 297 297 297 297 297 297
292 293 295 296 297 298 299 299 299 298 298 298 297 297 295 294 293 292 290 289 288 287 287 287 287 287 287 287 287 287 287 287 287 287 287 287 287 287 287 287 287 287 287 287 287 287 287 287 287 287 287 288 290 291 291 292 292 291 293 294 295 296 297 298 298 297 296 297 297 297 298 298 297 295 296 297 296 296 296 296 295 295 295 296 297
291 292 293 295 296 297 298 298 297 296 296 296 295 295 294 293 292 290 288 288 288 287 287 287 287 287 287 287 287 287 287 287 287 287 287 287 287 287 287 286 286 286 286 286 286 286 286 286 286 286 286 286 287 289 290 290 290 290 290 291 292 292 294 295 296 295 293 293 294 295 295 295 294 294 295 294 294 295 295 295 294 292 293 295 296
290 290 291 293 294 295 296 296 295 294 294 294 294 293 293 292 291 289 288 287 287 287 287 287 287 287 287 286 286 286 286 286 286 286 286 286 286 286 286 286 286 285 285 285 285 285 285 285 285 285 285 285 285 286 287 288 289 289 289 290 290 290 291 292 293 293 292 292 292 293 293 292 292 293 293 292 292 293 292 293 293 291 292 295 295
288 289 289 290 291 292 293 294 293 292 292 292 292 292 292 291 290 289 288 287 287 287 287 287 286 286 286 286 286 286 285 285 285 285 285 285 285 285 285 285 285 285 285 285 284 284 284 284 284 284 284 284 284 284 284 285 286 286 287 288 289 289 290 290 290 290 291 291 291 291 292 291 291 291 291 291 291 289 289 291 292 292 294 295 294
287 288 288 289 290 291 292 292 291 291 291 291 291 291 290 290 289 289 288 288 287 287 287 287 286 286 286 285 285 285 285 285 285 285 285 285 285 285 285 285 285 285 284 284 284 284 284 284 284 284 284 284 284 284 284 284 284 284 285 286 287 287 288 289 289 289 289 290 290 290 290 290 290 291 290 290 289 288 288 289 290 291 293 294 293
Wind_Speed
12 22 19 17 20 16 16 14 14 14 13 13 12 12 12 12 11 11 10 10 10 10 10 9 9 10 10 10 10 10 10 10 10 10 9 8 7 8 9 10 11 11 11 11 11 11 12 12 13 13 13 12 11 11 11 11 11 11 10 10 10 9 9 9 9 10 11 11 11 12 13 12 12 12 11 10 10 9 9 10 10 10 10 11 11
12 23 21 18 20 16 16 14 14 13 13 12 12 11 11 11 11 11 10 10 10 10 10 9 9 9 9 9 10 10 9 10 9 8 7 8 7 8 8 9 10 10 10 10 10 10 11 11 11 11 11 11 11 11 11 10 10 9 9 9 9 8 8 7 7 8 8 9 10 12 13 13 12 11 11 10 10 10 10 10 10 11 11 10 11
13 22 22 19 19 17 16 14 14 13 12 12 12 11 11 11 10 11 10 10 10 10 9 8 9 9 9 8 9 9 9 8 8 7 7 7 7 8 8 8 9 9 9 9 9 10 10 10 9 9 9 9 9 9 9 9 8 8 8 7 7 7 6 6 6 6 7 8 9 11 11 11 11 11 11 11 10 11 11 11 11 12 12 11 11
14 22 20 17 19 17 16 15 14 13 13 12 12 11 11 10 10 10 9 9 9 9 9 9 9 8 8 8 8 8 8 8 7 7 7 6 6 8 7 7 8 8 8 8 9 9 9 8 8 8 8 7 7 7 7 7 7 7 6 6 5 5 5 5 5 5 6 7 8 9 9 9 10 10 10 10 10 11 11 11 12 12 12 12 11
15 22 20 16 19 17 16 15 14 13 13 12 12 11 10 10 9 9 9 8 8 8 9 9 9 8 8 8 8 8 7 7 6 6 6 6 6 7 7 6 7 6 6 7 8 8 8 8 8 9 9 9 8 7 5 4 4 5 5 5 4 4 4 4 4 4 6 7 8 8 7 8 8 9 9 9 9 10 10 10 10 10 10 10 10
17 22 20 16 17 15 17 15 14 14 13 12 12 11 10 10 9 9 9 8 7 7 8 9 8 8 7 7 7 7 7 6 5 5 5 6 6 6 7 6 5 5 5 6 7 7 8 9 10 10 10 11 11 10 8 6 5 5 6 6 5 4 3 2 2 3 4 6 7 7 6 7 7 7 8 8 8 9 9 9 9 9 9 8 8
18 21 20 15 15 16 18 17 15 15 14 13 11 11 10 10 9 9 8 7 6 6 7 8 8 7 7 7 7 7 6 5 4 3 4 5 5 5 6 5 4 4 5 6 6 7 8 10 11 10 11 12 13 13 11 9 8 7 7 6 6 5 4 2 0 1 3 5 5 5 5 5 5 6 7 7 7 8 9 8 8 7 7 6 6
18 21 20 15 14 16 19 18 16 16 14 13 11 11 10 10 9 9 8 6 6 6 6 7 8 7 7 7 6 6 5 5 4 3 3 4 4 5 5 4 4 4 5 6 6 8 10 10 9 10 13 14 15 16 15 12 8 7 7 7 7 6 5 3 2 1 2 3 4 4 5 4 4 5 6 6 6 6 7 8 8 7 7 6 5
16 20 19 14 12 17 20 18 16 16 14 13 12 11 11 10 10 9 8 6 5 6 5 5 8 7 6 6 6 6 5 5 4 3 4 4 4 4 4 4 4 5 7 8 7 7 10 10 9 11 14 16 16 17 16 14 9 6 7 7 7 6 5 3 3 3 2 3 3 4 3 4 4 5 5 5 5 6 7 7 8 7 8 7 6
15 19 17 12 11 17 19 17 16 15 14 13 12 11 11 10 10 9 8 7 6 5 5 5 7 7 6 6 6 5 5 5 4 4 4 4 5 4 4 4 5 7 8 7 6 5 9 9 8 12 15 16 17 17 16 13 8 6 6 6 6 5 3 2 2 2 2 2 3 3 3 4 4 4 5 4 5 7 7 7 7 7 8 9 8
14 16 16 11 10 17 19 17 16 15 13 12 12 11 11 10 9 9 8 8 6 6 5 5 7 7 7 6 6 5 5 5 3 3 4 4 4 4 4 4 5 7 5 5 6 6 6 6 8 13 15 16 17 16 14 12 8 5 4 4 4 3 2 2 3 2 2 2 2 2 3 5 4 3 3 4 5 6 7 8 8 7 7 8 8
12 14 15 11 10 17 18 16 16 15 14 12 12 11 11 10 9 9 8 7 6 6 6 5 6 6 7 7 6 5 5 5 3 3 3 3 4 4 4 4 4 4 3 3 4 4 5 6 10 13 14 15 16 16 13 10 7 5 4 4 4 4 3 4 4 3 3 2 2 3 3 4 4 4 4 4 5 5 5 5 5 5 6 6 6
10 13 14 9 9 16 17 17 16 15 15 13 11 11 11 10 9 8 7 6 5 5 6 5 6 6 6 7 6 4 4 4 3 3 3 3 3 4 4 4 3 3 2 2 4 6 7 10 11 12 14 14 16 16 13 9 6 5 4 5 5 5 5 5 4 3 3 3 2 3 3 3 3 5 5 5 5 4 3 4 5 5 5 6 6
7 10 9 6 9 16 18 17 16 16 15 13 12 11 11 11 9 8 8 6 5 6 6 6 7 7 6 6 6 4 4 4 4 4 3 3 3 4 4 3 2 2 2 3 6 8 9 10 11 12 13 14 16 16 12 9 6 4 4 5 5 6 6 5 4 4 3 3 3 3 3 3 2 4 5 4 3 3 4 6 7 7 6 6 7
4 7 8 6 7 12 17 18 17 16 15 15 13 11 11 11 10 9 8 8 6 6 7 6 7 8 7 6 5 5 5 5 5 5 4 3 3 4 4 3 2 2 2 4 7 8 8 9 10 11 13 14 16 15 11 8 6 5 4 4 5 5 6 5 4 4 4 4 4 3 3 3 3 4 3 3 3 4 5 6 7 6 6 7 8
3 5 8 9 7 7 13 17 17 17 16 16 14 13 12 11 11 10 9 8 7 6 7 6 6 8 8 7 6 5 6 6 6 5 4 3 4 4 4 3 2 1 2 6 7 7 8 9 10 12 13 14 15 14 10 8 7 5 5 4 4 4 5 5 4 4 4 4 3 3 3 2 3 3 2 2 3 4 5 6 5 4 6 7 7
4 4 5 8 9 7 8 11 16 18 17 17 16 15 14 13 11 10 10 9 8 7 7 6 6 8 9 8 8 7 7 8 7 6 5 4 4 5 4 3 2 1 3 6 7 8 9 10 11 13 14 14 15 13 10 8 7 5 5 4 4 3 3 4 3 3 2 2 2 2 2 1 2 2 2 2 3 4 4 5 5 4 6 6 7
4 5 4 6 7 8 8 9 12 16 16 16 16 16 15 14 12 11 11 11 9 8 6 6 6 8 10 9 9 9 9 8 8 6 5 5 4 4 4 4 2 1 3 6 8 10 11 12 13 14 14 15 15 13 10 8 7 6 5 4 4 3 3 3 2 2 2 1 1 1 1 2 3 0 2 3 4 4 3 5 7 7 6 6 6
4 4 5 6 7 8 9 10 10 12 13 13 13 15 16 15 14 12 12 12 11 9 7 7 7 7 9 10 10 10 10 10 9 7 5 4 3 2 3 3 2 1 4 7 8 10 11 13 13 14 15 16 16 14 10 8 7 6 5 4 4 4 3 2 1 1 1 0 0 1 2 4 4 3 3 4 4 4 4 6 7 7 5 5 5
4 3 3 5 8 9 9 10 10 10 11 12 12 13 15 16 16 14 13 12 12 12 10 8 8 8 9 11 10 10 10 10 11 8 5 4 4 3 3 3 2 1 4 6 7 9 11 13 14 15 16 16 17 16 12 8 7 6 5 4 4 4 3 2 1 0 1 2 2 2 5 6 5 4 4 4 4 5 5 5 5 5 4 4 4
5 3 1 2 5 8 9 10 10 10 10 11 11 12 14 16 15 14 14 12 12 12 10 10 9 8 9 10 10 9 9 9 10 9 7 6 5 5 4 5 5 3 3 5 5 7 11 13 13 15 17 16 17 18 14 9 7 6 6 5 4 4 3 2 2 1 2 2 2 3 5 6 5 3 4 4 4 5 5 4 3 3 3 3 2
7 6 4 3 3 6 9 10 9 9 10 9 10 11 13 15 14 13 13 12 11 11 11 10 9 9 9 9 9 9 8 7 9 8 7 7 6 7 5 5 6 6 5 4 4 7 11 11 12 15 17 17 16 18 17 12 8 7 7 6 5 4 4 3 3 3 2 2 3 4 4 4 3 3 4 4 4 5 4 3 3 2 2 1 1
11 9 8 6 4 5 8 10 9 8 8 10 10 9 11 13 13 12 13 12 12 12 11 10 10 10 10 9 9 9 8 8 9 9 8 7 7 7 7 6 6 8 8 4 4 7 9 9 12 14 15 17 16 16 17 15 12 9 8 7 6 5 4 4 4 4 4 3 3 4 4 4 2 3 5 4 4 5 4 3 3 3 2 1 1
13 12 10 9 7 6 7 9 10 8 7 10 10 8 8 10 11 11 12 13 12 11 10 10 11 12 12 11 10 10 10 9 9 10 9 7 6 7 8 8 8 9 10 6 4 6 7 9 12 12 13 15 15 15 16 16 14 11 9 8 8 7 6 5 4 4 5 5 4 4 3 4 3 1 4 5 5 5 4 3 3 3 3 2 2
13 12 12 10 8 6 7 8 10 9 8 9 10 9 8 9 10 10 11 12 13 11 10 10 9 9 11 11 11 11 11 10 11 10 8 7 6 6 8 8 8 10 11 8 5 6 5 8 10 8 11 13 13 14 14 14 14 12 10 9 9 8 7 6 5 5 5 6 6 5 4 4 5 4 1 3 5 6 5 4 4 4 4 3 3
13 13 13 11 9 7 5 7 9 9 7 8 9 8 8 8 9 8 8 9 10 10 10 11 9 8 10 11 11 12 11 11 11 11 9 8 6 6 8 10 10 12 13 10 7 7 5 6 6 5 10 12 12 13 13 12 12 12 11 9 9 9 8 8 7 6 6 6 7 6 6 5 5 6 4 1 2 4 6 6 4 4 5 4 4
12 13 12 12 11 8 5 4 7 8 5 6 7 7 7 7 7 6 6 6 7 7 5 7 8 7 9 11 13 13 11 12 12 11 10 9 6 6 8 10 12 12 12 12 9 7 6 7 5 5 8 10 12 12 12 13 12 12 12 10 9 9 9 9 9 8 7 7 8 8 8 7 6 6 7 5 2 1 4 6 6 5 5 5 6
11 13 12 13 13 10 7 1 7 7 4 5 6 6 6 6 5 4 4 5 5 5 3 2 3 4 7 8 11 13 11 12 13 13 13 11 8 6 6 8 9 9 10 11 11 10 8 8 6 7 7 8 11 11 12 13 13 12 12 11 10 10 9 10 10 10 9 9 9 9 9 9 8 7 7 7 5 3 1 3 5 6 6 6 7
13 14 13 12 12 12 9 3 7 7 6 7 6 5 5 5 5 3 2 3 1 2 1 2 1 1 3 4 5 9 11 10 10 14 17 13 8 5 4 5 6 6 8 10 13 13 11 9 7 8 8 7 9 10 11 12 13 13 12 12 11 10 10 10 10 10 10 11 11 11 10 10 10 9 9 8 8 7 4 2 3 5 6 7 7
14 14 13 13 13 13 11 7 7 8 8 8 8 6 6 6 6 3 4 6 4 3 4 5 3 3 3 1 2 2 6 6 6 11 15 9 3 4 3 4 4 5 7 9 15 15 13 11 8 8 8 8 9 9 10 12 13 13 13 12 12 11 11 11 11 11 11 11 12 12 11 11 11 11 10 10 9 9 9 7 4 3 5 7 8
14 14 15 14 14 14 13 10 9 9 10 11 11 10 10 10 9 5 5 8 6 7 7 7 6 6 6 3 4 4 2 1 1 3 6 4 1 1 1 2 4 5 6 7 11 13 13 12 10 9 8 8 9 9 9 10 12 13 13 13 13 12 12 12 12 12 12 12 12 12 12 12 12 12 12 11 11 11 11 11 9 6 4 7 8
15 15 15 15 14 14 13 13 12 12 13 15 13 11 12 12 11 8 7 9 9 9 9 9 10 9 8 7 6 6 5 6 5 3 1 1 0 1 1 1 2 4 6 6 8 11 12 12 10 9 8 8 8 8 8 8 9 11 13 12 12 13 13 13 13 13 12 12 13 13 13 13 12 12 12 12 12 12 12 12 12 11 8 6 6
15 16 16 16 16 16 15 14 13 14 15 15 15 14 13 14 14 12 9 10 9 10 11 10 10 10 9 8 8 8 7 7 6 5 4 3 3 4 4 4 5 4 3 4 6 8 9 9 8 7 7 7 7 8 7 7 7 9 10 10 10 10 11 12 12 13 12 12 12 13 13 13 13 13 13 13 13 12 12 13 13 14 14 10 7
15 16 18 18 18 19 19 17 16 17 17 16 18 19 18 17 18 17 14 13 14 14 15 15 13 13 12 10 9 8 8 8 6 5 6 6 6 6 7 7 6 6 6 4 2 3 4 5 6 6 6 6 6 7 7 6 5 6 9 10 9 8 9 9 10 11 12 12 12 12 12 12 12 12 13 13 13 13 13 13 13 14 15 15 13
15 17 19 19 20 21 23 23 21 22 23 22 23 24 24 23 22 22 20 20 20 20 20 20 17 17 16 14 13 12 11 10 8 7 7 8 8 8 8 7 6 5 6 7 6 5 6 7 7 8 8 9 8 9 9 8 8 8 10 11 11 10 9 8 8 9 10 11 11 12 12 12 12 12 12 12 12 12 12 13 13 14 14 15 15
16 18 19 21 22 24 25 26 25 25 27 26 26 26 26 25 25 25 25 24 24 25 25 24 22 22 21 20 19 19 18 16 14 13 12 11 11 11 12 11 10 8 8 9 8 8 8 8 7 7 8 9 9 10 10 10 10 10 12 13 13 13 12 10 9 9 9 9 9 10 10 11 11 11 11 12 12 13 12 12 13 14 14 14 14
16 18 20 22 23 25 27 27 27 27 27 27 26 26 25 25 26 26 27 27 27 28 27 26 26 25 24 24 23 22 22 21 20 19 18 18 16 16 16 13 12 12 11 10 9 9 9 7 7 7 6 6 7 8 9 9 9 10 12 13 13 13 12 11 11 10 9 9 9 9 9 9 10 10 11 11 12 13 13 13 13 14 14 14 14
16 18 21 23 24 26 27 28 29 29 28 29 29 29 28 28 29 29 28 28 28 29 28 26 27 26 26 25 24 23 23 22 22 21 20 20 20 19 18 16 15 15 15 14 13 11 11 10 10 9 8 7 7 7 8 7 8 9 9 10 11 12 12 11 10 8 8 8 9 9 9 10 11 10 10 10 10 11 13 14 14 15 15 15 15
16 19 21 23 25 27 28 30 32 32 31 31 31 31 30 29 29 29 29 28 28 28 28 27 26 25 25 24 23 23 21 21 21 21 21 20 20 20 19 18 17 16 16 17 16 15 14 13 13 12 11 10 11 11 11 10 9 9 10 10 11 11 11 9 7 5 5 7 8 9 11 12 12 11 10 10 10 10 11 11 12 13 14 14 14
17 18 21 22 24 26 28 29 30 31 31 29 29 30 30 29 29 29 29 30 28 28 28 27 26 25 25 24 24 23 21 21 21 20 20 20 20 20 19 19 19 18 18 19 19 17 16 15 14 14 13 13 14 15 15 14 10 9 10 10 10 9 8 6 4 3 5 8 11 13 12 11 11 12 12 11 12 12 13 13 13 13 14 14 13
17 19 20 21 23 24 25 26 27 28 28 27 26 27 27 27 28 29 29 29 29 29 29 28 28 27 26 25 25 25 23 23 22 22 22 22 22 21 21 21 21 21 21 20 19 18 17 16 14 14 15 15 16 18 18 12 8 9 10 8 7 5 6 5 2 4 9 13 15 12 9 11 13 13 13 13 15 17 17 17 17 16 16 15 15
16 19 21 21 21 22 23 23 24 25 26 25 25 25 25 26 28 29 29 29 30 30 31 30 29 28 27 27 26 26 25 25 24 23 24 24 24 23 23 23 23 23 22 21 20 19 19 18 14 11 13 14 14 18 20 13 9 11 9 7 5 3 3 0 4 11 16 13 10 9 10 13 13 12 15 18 19 20 20 20 20 19 18 17 17
16 18 21 22 22 22 23 23 24 24 24 24 24 25 26 27 29 30 31 32 32 32 32 31 30 29 29 29 29 28 27 27 26 25 26 26 26 26 25 25 25 25 25 24 25 24 23 22 19 13 10 11 13 16 19 15 11 11 7 5 5 4 2 3 9 21 15 7 8 11 13 12 10 14 18 18 17 18 22 23 23 22 21 20 20
16 18 21 22 24 25 25 25 25 25 25 25 26 27 28 29 31 32 33 34 34 33 33 32 32 31 31 31 31 30 30 29 29 28 28 28 28 28 28 28 28 28 28 28 28 28 27 25 24 20 13 11 12 14 16 17 15 11 7 4 3 4 2 3 16 17 5 5 11 10 9 9 11 15 15 13 16 20 22 24 24 23 23 22 22
16 18 20 22 25 26 27 28 28 28 29 29 29 31 32 32 33 32 31 32 31 31 30 30 31 31 31 32 31 31 30 30 30 30 29 29 28 29 28 28 28 28 28 28 28 27 27 26 25 24 19 13 12 12 13 15 17 15 10 5 3 3 3 9 15 8 4 10 10 7 7 9 11 12 13 15 18 19 18 19 22 24 25 24 23
14 16 19 21 24 26 28 29 29 30 30 30 30 31 32 31 29 27 25 26 25 25 25 25 27 29 30 30 30 29 29 29 29 29 28 28 27 27 27 27 27 27 27 27 27 25 25 25 24 24 22 17 12 13 13 12 14 16 14 9 5 4 5 10 9 5 9 11 6 7 10 8 9 13 16 16 16 16 15 16 20 22 24 25 24
13 16 19 21 23 25 27 28 29 29 29 29 29 29 30 30 29 29 28 27 24 23 24 25 27 28 28 28 27 27 28 28 27 27 26 26 26 26 25 26 26 26 25 25 25 24 23 23 23 22 23 21 16 13 13 12 11 14 14 10 7 6 6 7 6 6 9 7 7 12 10 7 12 16 14 13 15 16 15 17 19 21 23 22 22
14 17 19 21 23 24 25 26 27 27 27 28 28 29 30 30 31 33 32 30 28 27 27 27 27 27 26 26 26 25 25 25 25 25 25 24 24 24 24 24 24 24 24 24 23 22 21 21 21 21 21 21 19 14 12 12 11 12 12 10 9 8 7 6 5 7 7 7 11 12 10 14 17 14 11 13 15 15 16 19 20 22 23 20 19
16 19 21 23 24 24 24 26 26 27 28 28 28 28 29 30 31 33 33 31 30 28 27 27 26 25 25 25 24 24 24 24 24 23 23 23 23 23 23 23 23 23 22 22 21 20 20 20 19 20 19 19 19 16 13 12 10 10 11 10 10 9 8 6 6 9 8 8 9 8 13 20 17 12 13 15 14 15 19 18 18 21 21 19 19
18 20 23 25 26 27 27 28 29 29 29 28 28 28 28 29 30 31 32 31 29 27 26 25 24 23 24 24 23 23 22 22 22 21 21 21 21 21 21 21 21 21 20 20 20 19 19 19 19 18 18 17 17 16 15 13 11 11 11 9 9 10 8 7 8 10 10 9 9 10 15 18 15 15 18 17 18 24 24 17 16 18 15 15 18
18 20 23 26 28 29 29 30 30 29 29 28 28 28 28 28 29 29 29 29 28 26 25 24 23 22 22 22 21 21 21 20 20 20 20 20 20 19 19 20 19 19 20 20 19 19 19 19 19 18 18 17 17 16 15 15 13 13 13 10 9 9 8 8 9 11 10 10 10 11 15 17 17 19 20 20 25 28 24 19 18 15 12 14 16
Wind_Direction
184 174 173 174 168 162 166 168 165 165 164 162 157 151 153 149 143 140 132 125 124 124 120 116 113 107 107 110 108 100 102 102 98 95 93 90 83 94 100 99 95 95 95 93 90 86 82 77 78 79 81 83 82 76 71 72 74 73 72 72 72 73 74 75 74 72 71 70 73 81 82 73 69 69 69 69 69 70 71 73 67 64 62 61 63
183 175 174 176 172 165 166 170 167 168 167 166 161 155 158 154 144 141 135 131 126 126 123 118 116 109 111 113 112 108 108 106 100 97 96 95 85 90 98 98 96 93 88 84 81 76 73 71 74 76 76 78 80 81 81 79 75 71 68 69 70 71 72 74 75 73 70 70 73 78 78 76 72 69 69 69 70 69 69 70 67 66 63 60 62
180 175 174 177 174 169 168 170 170 173 170 168 164 161 162 159 148 141 138 133 128 128 126 123 121 114 113 112 112 110 108 106 102 100 94 95 91 90 94 95 93 90 84 76 71 67 67 68 70 70 69 68 71 78 81 81 77 71 67 66 65 64 65 70 74 77 76 76 79 71 64 68 69 66 68 70 71 71 70 68 66 67 67 64 63
175 175 173 176 175 169 170 172 171 174 173 170 168 165 164 164 154 145 142 134 129 128 130 129 126 121 118 117 117 113 111 108 105 104 94 89 91 93 92 93 94 92 85 77 73 68 65 61 55 50 50 47 48 58 66 72 68 58 55 54 56 57 56 61 69 79 84 88 86 76 68 70 70 64 61 66 72 72 70 67 65 65 65 65 64
172 174 172 173 175 171 172 175 174 176 177 173 172 170 165 166 161 151 145 136 132 131 134 134 132 128 125 125 122 121 118 111 110 110 104 96 95 98 93 92 92 88 82 80 79 76 67 52 38 32 29 24 17 14 18 33 36 26 23 26 25 28 36 49 58 72 85 90 82 75 77 78 77 74 66 62 67 69 68 66 63 61 60 61 61
172 175 172 170 175 176 174 177 179 177 179 178 175 173 168 169 167 155 148 142 137 135 138 139 139 136 133 132 128 127 124 118 115 113 117 110 107 108 98 89 86 86 80 76 76 74 62 44 33 27 22 16 10 359 344 328 326 335 343 355 353 347 349 11 45 70 79 73 66 65 68 70 76 81 81 71 67 66 63 63 61 58 55 56 56
176 176 172 169 176 183 179 180 183 178 181 182 180 178 174 173 172 162 154 148 143 139 141 144 145 144 140 139 136 132 129 124 110 105 124 126 121 113 104 91 87 88 79 72 64 51 33 24 23 23 20 14 12 8 356 331 310 315 328 338 338 331 320 304 298 94 79 59 47 52 54 58 69 77 86 82 71 61 57 59 60 62 57 52 51
180 179 175 171 176 189 184 181 184 182 183 183 184 183 180 179 176 168 160 155 154 148 144 147 147 149 148 146 144 140 140 128 106 95 122 138 130 121 116 94 84 78 68 62 45 26 10 4 8 16 14 7 6 5 4 354 329 319 327 333 332 324 311 280 235 194 95 60 44 49 47 45 58 73 83 82 68 51 55 49 40 50 55 54 56
180 181 179 174 182 192 185 184 187 185 185 186 189 187 185 185 181 175 168 169 171 157 153 156 148 152 155 154 154 150 150 139 120 102 122 144 138 134 122 85 78 70 60 53 44 27 7 357 3 10 4 0 358 356 358 1 352 334 330 330 326 318 305 267 222 187 112 69 61 52 52 48 46 71 78 74 64 52 64 58 39 39 42 41 47
178 183 182 176 190 191 183 186 190 189 189 192 195 193 192 191 187 184 178 179 189 174 165 168 156 158 162 166 167 158 165 161 134 102 115 135 134 139 121 96 89 76 66 53 47 32 8 3 6 4 356 352 351 350 354 359 1 346 331 329 325 320 308 241 181 149 109 90 79 49 62 71 50 63 70 62 58 50 56 60 51 42 33 26 29
178 183 184 179 197 192 183 188 193 195 195 199 201 199 197 196 193 189 185 179 189 185 173 181 171 164 164 173 175 166 184 182 149 109 112 123 128 133 122 113 98 85 83 64 50 33 17 11 359 353 348 346 347 350 355 359 2 353 338 342 347 359 12 136 123 108 110 97 90 72 59 68 64 58 56 56 54 48 52 55 53 42 28 19 15
179 183 185 185 201 193 188 190 194 198 201 205 206 207 203 201 198 192 193 184 187 186 175 192 185 174 171 173 173 169 194 195 168 137 120 121 127 132 131 125 112 104 103 78 53 27 3 348 341 344 345 346 352 356 359 3 6 4 6 19 30 47 68 113 107 106 112 94 99 101 72 68 85 76 45 38 50 53 58 53 43 25 13 4 352
181 186 187 187 198 195 195 196 197 201 204 209 210 212 208 205 204 200 204 196 194 190 182 198 195 187 187 183 176 173 206 213 194 183 149 135 133 136 143 141 130 111 79 31 16 1 344 338 338 343 347 349 354 357 0 7 11 14 30 41 51 63 77 98 105 108 103 103 114 107 96 80 81 76 54 36 40 28 5 349 342 339 342 335 328
180 190 188 183 196 200 202 201 203 204 206 212 213 214 215 216 215 211 212 207 209 202 191 202 204 194 197 203 190 183 215 237 229 214 189 165 153 147 154 153 129 88 38 4 3 359 347 342 344 344 346 349 351 354 359 7 12 21 38 47 58 66 75 87 105 111 103 112 119 112 99 87 90 78 62 43 20 332 333 341 336 335 331 323 322
162 190 193 189 195 203 205 207 209 207 207 213 217 217 220 224 222 220 217 210 212 213 205 212 218 202 197 212 208 200 222 249 252 235 216 195 176 166 162 152 117 81 40 19 10 2 352 343 343 344 346 348 349 352 357 4 9 23 42 49 58 64 72 77 87 100 107 112 111 113 92 95 118 88 60 40 12 342 348 345 338 342 329 326 331
125 178 194 200 198 203 208 212 215 213 211 213 219 219 218 222 224 227 226 217 216 217 216 222 230 216 204 210 218 215 226 248 261 253 229 209 194 182 171 159 138 83 42 26 21 6 351 344 344 347 347 348 350 354 357 1 3 17 39 50 57 60 73 77 78 85 98 105 108 110 85 99 135 94 52 30 17 0 354 343 342 347 329 334 345
120 148 185 201 203 207 210 213 219 220 219 218 220 222 221 222 223 229 232 229 225 218 223 231 233 228 219 215 221 222 229 243 259 264 237 220 207 186 178 167 151 71 30 24 27 16 2 357 355 354 352 352 353 354 357 358 357 7 27 42 56 58 78 85 74 69 83 98 104 102 73 110 173 99 32 10 3 356 356 343 335 329 325 338 348
128 140 167 191 205 212 212 214 219 222 225 227 225 225 227 225 222 225 231 232 227 219 224 240 243 239 233 228 229 228 235 243 255 265 242 224 215 183 182 179 162 56 17 15 16 16 13 9 4 360 357 356 356 355 353 353 353 355 14 33 47 52 79 91 74 67 69 68 69 68 14 241 214 239 0 352 347 341 344 333 321 321 324 336 355
119 141 168 184 197 205 213 217 217 218 221 228 229 229 231 231 228 225 230 232 230 227 230 246 254 251 243 237 236 237 240 247 256 266 255 227 224 207 207 206 171 8 355 359 4 7 8 9 7 1 359 0 360 358 350 345 349 348 359 19 32 45 57 68 90 145 51 309 91 1 267 247 244 290 327 325 327 317 327 326 320 328 337 354 23
79 109 165 187 198 199 206 215 216 217 214 220 226 230 234 234 234 231 231 230 230 233 234 244 256 260 252 241 239 243 245 252 258 261 264 245 231 236 240 255 252 297 329 337 352 0 1 7 9 1 359 0 2 1 353 341 341 341 345 359 15 30 37 33 341 268 349 258 242 284 260 253 259 291 322 312 312 312 320 324 326 342 1 19 32
37 38 17 209 209 206 205 209 217 219 213 216 222 225 231 234 233 235 236 230 231 237 241 242 251 258 253 244 240 249 251 257 263 258 261 256 237 229 231 245 248 255 293 325 337 352 354 2 11 5 358 357 0 4 0 348 336 337 337 342 3 12 6 15 14 342 309 273 273 275 265 263 263 289 325 315 318 320 320 325 339 355 4 25 33
10 9 349 313 251 226 214 209 215 222 215 210 217 220 226 231 227 231 238 238 239 242 244 244 251 253 250 245 239 245 247 252 259 256 255 257 244 234 248 249 243 260 271 303 321 336 341 352 9 6 1 356 357 3 4 360 345 335 333 336 347 350 349 1 9 343 323 315 301 286 279 273 270 318 330 324 327 323 328 338 351 4 352 23 31
4 4 354 333 298 263 232 218 213 220 220 207 210 215 220 227 223 225 233 238 246 247 244 242 246 248 249 246 241 244 243 242 249 248 249 258 254 243 263 269 251 260 264 276 303 315 322 339 355 357 2 359 355 359 3 4 357 343 334 332 333 331 338 349 353 345 336 329 311 299 290 274 285 350 335 327 330 330 338 342 348 2 356 7 1
0 2 355 344 321 285 256 234 217 212 220 209 204 208 213 217 218 222 225 230 238 244 245 242 245 250 253 247 243 247 242 238 243 250 251 250 255 246 254 266 261 257 257 258 274 293 306 328 338 344 359 1 356 355 360 3 1 352 339 330 326 324 325 332 336 336 332 326 316 304 291 266 259 332 351 333 324 330 336 332 335 343 336 336 331
358 0 356 350 336 304 271 246 226 211 211 209 202 203 209 211 215 216 219 225 227 232 238 235 238 248 249 242 240 245 243 242 240 242 244 240 245 246 244 250 252 250 248 243 257 276 295 325 333 342 353 0 357 353 356 359 360 355 345 332 323 321 318 318 319 321 323 319 314 306 297 270 254 247 324 346 325 321 324 321 319 319 316 324 323
2 2 359 354 349 332 290 248 225 206 200 210 204 201 207 210 215 211 212 221 227 239 241 232 230 237 243 240 242 246 245 245 242 236 230 232 239 244 248 249 249 247 238 229 247 265 277 313 327 340 350 359 357 351 352 352 355 353 347 336 325 319 314 312 309 309 311 310 309 306 301 286 264 251 244 283 335 316 313 311 307 306 304 313 328
2 2 6 4 3 1 332 262 208 193 189 205 197 196 209 213 214 210 214 219 226 243 246 235 235 244 250 245 244 246 245 246 245 237 226 228 236 243 257 261 259 254 239 231 240 256 284 305 302 312 344 360 352 347 349 348 349 349 347 343 333 323 317 313 310 309 308 307 305 304 302 297 285 266 255 249 217 274 309 307 301 297 294 299 322
5 7 17 19 19 25 9 340 169 165 165 179 175 181 200 207 209 199 213 232 243 250 250 260 252 251 257 253 250 249 251 251 247 240 231 230 235 238 258 264 259 253 243 239 240 252 284 305 295 296 326 350 345 342 346 346 345 344 344 343 339 332 324 319 316 314 312 310 306 302 301 298 295 287 271 258 239 224 270 315 302 293 289 289 305
13 18 27 30 35 39 31 66 133 137 147 156 151 164 176 177 188 177 171 205 276 278 227 41 22 278 273 276 276 261 255 254 256 248 234 228 236 245 254 252 249 257 261 254 244 247 267 284 291 301 314 330 333 336 344 347 343 341 340 338 340 335 329 325 322 321 318 313 309 303 299 297 295 293 286 272 255 241 231 258 307 298 290 286 291
16 28 36 40 49 53 54 72 109 121 136 143 130 137 155 147 152 140 118 134 115 97 99 73 57 48 31 1 21 302 250 252 274 248 223 214 256 283 265 247 265 286 290 271 247 246 263 276 287 302 312 318 323 334 344 347 343 341 340 336 335 333 330 327 323 322 320 316 311 305 300 297 295 292 290 284 272 257 244 248 266 290 297 294 289
22 34 40 46 56 62 70 82 103 117 123 134 133 127 138 145 149 148 110 112 107 102 95 75 68 62 56 61 69 74 95 97 355 240 204 196 244 280 270 255 279 288 286 268 247 249 267 276 279 287 297 309 322 338 343 344 344 342 342 339 337 336 333 331 326 321 317 314 311 306 302 299 296 292 289 287 282 273 261 256 252 248 294 314 298
29 36 41 52 63 68 79 88 104 124 125 132 143 131 119 125 136 136 103 96 97 96 89 78 78 74 69 71 74 79 85 80 68 57 48 338 15 46 322 273 307 291 265 250 247 257 268 272 274 281 292 304 318 326 329 337 341 340 342 343 342 340 338 338 336 329 321 313 308 305 302 300 297 293 290 287 284 281 274 267 259 254 263 294 304
36 44 51 60 67 71 84 94 102 121 124 119 124 122 110 108 116 116 100 94 97 95 92 88 82 76 72 71 72 73 76 76 65 53 49 39 33 40 47 44 28 8 318 269 263 271 277 281 287 295 301 308 316 312 317 335 338 335 336 337 341 343 345 347 345 341 336 327 320 314 309 304 301 296 291 288 285 283 279 275 270 266 261 260 271
47 56 63 67 72 76 88 99 100 107 112 106 106 109 106 102 104 106 103 100 100 98 94 92 86 81 78 76 75 70 69 75 67 51 54 56 49 50 55 44 22 14 18 10 343 327 322 322 329 331 323 319 317 310 314 327 325 324 325 327 331 332 340 349 348 345 343 340 337 332 327 320 312 304 296 290 286 282 281 282 278 275 271 267 267
63 68 74 77 83 87 91 98 100 102 104 103 102 103 103 100 100 101 101 99 98 95 91 91 89 86 84 81 82 81 77 80 80 70 62 58 57 60 62 57 46 29 34 44 42 36 32 16 1 351 342 339 338 332 334 333 324 321 321 323 324 320 321 327 331 334 336 338 339 339 336 331 324 315 307 301 294 287 283 284 282 280 277 274 275
77 79 84 87 91 94 96 98 101 102 102 101 101 101 100 99 98 98 99 98 96 94 92 92 92 91 90 88 87 87 86 85 86 86 82 76 71 72 71 67 64 59 54 51 42 40 36 21 6 354 348 350 350 347 346 339 329 323 322 324 323 321 320 318 319 321 325 330 332 334 333 329 323 316 312 310 306 299 290 287 285 283 282 279 278
88 90 92 94 95 97 101 101 101 103 104 104 104 102 102 102 101 100 99 99 97 94 93 93 92 91 90 88 87 87 87 87 86 85 83 82 80 79 78 74 73 74 71 64 56 55 50 40 32 24 18 13 3 351 344 337 330 322 322 324 321 320 321 320 321 322 326 329 329 329 329 327 323 318 316 314 310 306 300 294 292 290 288 287 284
97 99 101 101 101 102 105 105 104 105 106 107 106 104 103 104 103 101 99 98 96 94 93 92 90 89 89 88 87 86 86 85 84 82 80 80 80 79 78 77 77 78 76 75 72 70 67 63 58 53 50 43 29 10 353 338 328 321 320 319 316 315 314 314 318 324 332 334 335 340 343 342 338 335 332 327 320 313 307 302 300 299 296 293 291
103 106 108 110 110 109 110 110 108 106 106 106 105 103 102 100 99 98 96 94 93 93 91 89 88 88 88 88 87 86 84 84 83 82 80 79 79 77 76 74 73 72 72 72 69 65 64 63 60 57 52 45 37 24 10 358 347 341 337 331 327 321 311 310 321 331 341 348 353 353 350 348 349 351 352 348 343 337 330 325 319 315 310 303 298
108 110 113 115 116 115 114 113 112 110 108 105 103 102 101 98 96 93 91 89 89 89 88 88 88 87 87 86 86 85 83 83 82 81 80 80 80 78 76 73 69 67 66 66 62 58 56 54 52 48 43 38 31 24 15 5 358 349 342 336 332 330 321 314 322 339 358 357 347 342 342 348 352 353 357 359 359 354 350 345 340 335 329 322 314
109 112 114 117 117 118 118 116 116 115 112 109 106 102 99 96 94 90 88 87 86 86 86 86 86 86 86 85 83 82 81 80 79 80 80 80 78 77 75 72 69 67 66 66 62 60 56 53 48 40 39 38 29 24 18 11 4 350 341 331 319 321 324 317 330 12 356 340 333 338 350 351 349 352 357 355 349 344 341 340 338 336 333 330 326
107 111 113 116 116 117 119 118 118 118 116 113 110 107 103 99 96 93 91 89 87 85 85 85 85 86 85 84 83 82 81 80 79 80 79 79 77 74 73 73 72 69 67 66 63 60 57 55 53 41 40 43 38 29 24 25 11 348 334 324 323 320 309 34 47 352 339 333 338 351 349 343 343 346 345 340 338 336 335 335 334 332 330 328 327
105 109 111 114 114 115 118 117 117 117 116 114 113 110 108 105 102 98 95 92 88 87 86 85 86 85 85 84 83 82 81 81 80 79 78 78 77 76 74 74 74 71 68 65 61 59 57 55 54 50 44 44 45 36 32 35 16 350 336 326 341 342 289 124 1 335 329 346 0 351 341 342 341 334 334 335 337 334 329 327 326 326 326 324 323
108 110 113 114 115 116 117 117 116 116 114 113 112 111 109 108 105 102 99 95 92 90 88 86 85 85 85 85 84 83 83 82 81 80 79 79 78 77 76 74 73 72 69 65 62 60 58 57 54 54 50 42 43 38 36 38 28 15 2 332 319 335 330 345 335 329 335 354 342 343 342 341 337 332 335 335 331 328 324 323 323 322 321 319 318
112 113 114 116 117 118 118 118 117 116 115 114 113 112 111 108 106 103 100 97 93 90 87 83 82 82 82 84 84 84 84 83 82 81 79 78 78 77 75 74 72 71 69 66 64 60 59 58 55 55 54 47 41 39 38 38 38 37 26 8 342 338 345 331 327 326 340 329 328 339 334 329 334 336 335 329 326 328 326 324 325 325 323 321 318
112 115 116 118 120 120 120 120 119 119 119 119 119 118 116 113 111 108 104 99 92 87 85 83 82 82 82 83 84 84 83 82 81 79 78 77 76 75 74 72 71 69 68 66 64 60 57 56 55 54 55 52 45 41 38 35 39 42 39 38 30 354 326 325 325 318 321 322 328 331 324 323 332 332 328 326 329 331 327 325 325 326 325 323 320
116 119 121 123 125 125 125 124 123 123 123 123 123 122 121 120 117 112 107 102 97 94 94 93 90 89 87 85 83 81 81 80 79 77 76 75 74 73 71 70 69 67 66 64 63 60 56 55 54 52 52 51 50 44 35 30 33 34 32 34 28 5 334 328 332 325 320 319 320 321 320 322 324 324 325 328 330 328 326 327 325 325 325 321 318
122 124 126 128 130 131 131 129 127 127 127 126 126 124 122 119 115 110 106 104 103 102 100 98 96 94 90 87 83 80 78 77 77 75 73 72 71 70 68 67 67 65 64 62 60 59 56 54 52 50 50 49 49 47 37 31 28 23 20 20 16 5 351 344 340 331 321 308 313 319 318 318 318 319 322 326 327 326 325 323 324 328 329 326 327
128 127 129 130 132 133 133 132 130 129 129 129 127 124 121 116 112 110 108 107 106 105 103 100 98 95 91 88 84 80 77 74 73 72 70 69 67 66 65 64 63 62 61 59 57 55 52 50 48 47 47 45 45 45 40 33 28 19 13 10 6 1 352 349 344 336 324 308 311 319 319 320 318 311 314 320 321 323 323 316 319 328 328 328 333
130 129 129 128 129 130 131 130 128 128 128 128 126 122 118 115 113 112 111 111 110 108 106 102 98 95 91 88 84 81 77 74 71 70 68 67 65 63 62 61 60 58 56 54 51 49 46 45 44 43 42 42 40 39 36 31 26 20 15 8 3 2 353 345 344 339 329 311 305 310 315 320 315 308 315 316 311 319 322 315 314 320 319 323 327
133 132 130 129 128 128 130 129 127 128 128 126 124 120 118 116 115 116 115 115 114 112 108 104 100 97 92 88 84 80 76 73 69 65 64 62 59 57 56 55 53 51 49 47 44 42 40 38 37 36 35 35 34 33 30 26 22 18 15 12 4 0 352 340 337 335 328 316 309 308 311 313 306 303 311 312 310 315 319 317 316 314 309 317 320